• Em Portugal
  • Lista de países
  • Para 7 dias
  • Temperatura da água
  • Mapas de satélite
  • Mapa do tempo
  • Widgets de tempo
  • user-avatar
    Iniciar Sessão

    Previsão horária em Querns

    Hoje, 17 Agosto, Sexta-feira

    Tempo Temperatura Precipitação Vento Pressão Humidade
    00:00 +20°C° 0 mm 2 m/s 760 mmHg 96%
    01:00 +19°C° 0 mm 2 m/s 760 mmHg 96%
    02:00 +19°C° 0 mm 2 m/s 760 mmHg 96%
    03:00 +19°C° 0 mm 2 m/s 760 mmHg 96%
    04:00 +19°C° 0 mm 1 m/s 760 mmHg 96%
    05:00 +18°C° 0 mm 2 m/s 760 mmHg 96%
    06:00 +18°C° 0 mm 2 m/s 760 mmHg 96%
    07:00 +18°C° 0 mm 2 m/s 760 mmHg 95%
    08:00 +21°C° 0 mm 2 m/s 760 mmHg 83%
    09:00 +25°C° 0 mm 2 m/s 761 mmHg 70%
    10:00 +28°C° 0 mm 3 m/s 761 mmHg 54%
    11:00 +29°C° 0 mm 3 m/s 760 mmHg 52%
    12:00 +29°C° 0 mm 3 m/s 760 mmHg 49%
    13:00 +30°C° 0 mm 4 m/s 760 mmHg 46%
    14:00 +29°C° 0 mm 4 m/s 759 mmHg 50%
    15:00 +28°C° 0 mm 4 m/s 759 mmHg 54%
    16:00 +27°C° 0 mm 3 m/s 759 mmHg 59%
    17:00 +25°C° 0 mm 3 m/s 759 mmHg 68%
    18:00 +22°C° 0 mm 3 m/s 759 mmHg 77%
    19:00 +21°C° 0 mm 2 m/s 759 mmHg 87%
    20:00 +20°C° 0 mm 2 m/s 760 mmHg 89%
    21:00 +20°C° 0 mm 2 m/s 760 mmHg 92%
    22:00 +19°C° 0 mm 2 m/s 761 mmHg 94%
    23:00 +20°C° 0 mm 1 m/s 761 mmHg 94%

    Amanhã, 18 Agosto, Sábado

    Tempo Temperatura Precipitação Vento Pressão Humidade
    00:00 +19°C° 0 mm 1 m/s 761 mmHg 93%
    01:00 +19°C° 0 mm 1 m/s 761 mmHg 92%
    02:00 +19°C° 0 mm 1 m/s 761 mmHg 92%
    03:00 +18°C° 0 mm 2 m/s 761 mmHg 91%
    04:00 +17°C° 0 mm 2 m/s 761 mmHg 90%
    05:00 +17°C° 0 mm 2 m/s 761 mmHg 88%
    06:00 +17°C° 0 mm 2 m/s 761 mmHg 86%
    07:00 +17°C° 0 mm 3 m/s 761 mmHg 85%
    08:00 +21°C° 0 mm 3 m/s 761 mmHg 70%
    09:00 +25°C° 0 mm 3 m/s 762 mmHg 56%
    10:00 +28°C° 0 mm 3 m/s 762 mmHg 42%
    11:00 +29°C° 0 mm 3 m/s 761 mmHg 39%
    12:00 +30°C° 0 mm 4 m/s 761 mmHg 35%
    13:00 +32°C° 0 mm 4 m/s 760 mmHg 32%
    14:00 +32°C° 0 mm 4 m/s 760 mmHg 33%
    15:00 +32°C° 0 mm 4 m/s 759 mmHg 35%
    16:00 +30°C° 0 mm 5 m/s 759 mmHg 36%
    17:00 +27°C° 0 mm 4 m/s 759 mmHg 48%
    18:00 +25°C° 0 mm 4 m/s 760 mmHg 59%
    19:00 +21°C° 0 mm 3 m/s 760 mmHg 70%
    20:00 +20°C° 0 mm 3 m/s 761 mmHg 75%
    21:00 +19°C° 0 mm 2 m/s 761 mmHg 80%
    22:00 +18°C° 0 mm 2 m/s 762 mmHg 85%
    23:00 +18°C° 0 mm 2 m/s 762 mmHg 83%

    Depois de amanhã, 19 Agosto, Domingo

    Tempo Temperatura Precipitação Vento Pressão Humidade
    00:00 +18°C° 0 mm 2 m/s 762 mmHg 81%
    01:00 +18°C° 0 mm 2 m/s 761 mmHg 79%
    02:00 +18°C° 0 mm 2 m/s 761 mmHg 76%
    03:00 +18°C° 0 mm 3 m/s 761 mmHg 72%
    04:00 +18°C° 0 mm 3 m/s 761 mmHg 69%
    05:00 +18°C° 0 mm 3 m/s 761 mmHg 68%
    06:00 +18°C° 0 mm 3 m/s 761 mmHg 67%
    07:00 +18°C° 0 mm 4 m/s 762 mmHg 66%
    08:00 +21°C° 0 mm 4 m/s 762 mmHg 57%
    09:00 +25°C° 0 mm 5 m/s 762 mmHg 47%
    10:00 +28°C° 0 mm 5 m/s 763 mmHg 37%
    11:00 +29°C° 0 mm 6 m/s 762 mmHg 34%
    12:00 +30°C° 0 mm 6 m/s 761 mmHg 31%
    13:00 +32°C° 0 mm 6 m/s 761 mmHg 28%
    14:00 +32°C° 0 mm 6 m/s 761 mmHg 29%
    15:00 +30°C° 0 mm 6 m/s 760 mmHg 29%
    16:00 +30°C° 0 mm 6 m/s 760 mmHg 30%
    17:00 +27°C° 0 mm 5 m/s 760 mmHg 36%
    18:00 +23°C° 0 mm 4 m/s 761 mmHg 43%
    19:00 +20°C° 0 mm 4 m/s 761 mmHg 49%
    20:00 +20°C° 0 mm 3 m/s 762 mmHg 48%
    21:00 +19°C° 0 mm 3 m/s 762 mmHg 46%
    22:00 +18°C° 0 mm 3 m/s 762 mmHg 45%
    23:00 +18°C° 0 mm 3 m/s 762 mmHg 46%

    20 Agosto, Segunda-feira

    Tempo Temperatura Precipitação Vento Pressão Humidade
    00:00 +18°C° 0 mm 4 m/s 762 mmHg 47%
    01:00 +18°C° 0 mm 4 m/s 762 mmHg 48%
    02:00 +17°C° 0 mm 5 m/s 762 mmHg 48%
    03:00 +17°C° 0 mm 5 m/s 762 mmHg 47%
    04:00 +17°C° 0 mm 6 m/s 762 mmHg 47%
    05:00 +16°C° 0 mm 6 m/s 762 mmHg 43%
    06:00 +16°C° 0 mm 6 m/s 763 mmHg 40%
    07:00 +15°C° 0 mm 6 m/s 763 mmHg 36%
    08:00 +18°C° 0 mm 7 m/s 763 mmHg 36%
    09:00 +21°C° 0 mm 7 m/s 764 mmHg 37%
    10:00 +23°C° 0 mm 8 m/s 764 mmHg 38%
    11:00 +24°C° 0 mm 8 m/s 763 mmHg 40%
    12:00 +26°C° 0 mm 8 m/s 763 mmHg 42%
    13:00 +26°C° 0 mm 8 m/s 762 mmHg 45%
    14:00 +26°C° 0 mm 7 m/s 762 mmHg 47%
    15:00 +24°C° 0 mm 7 m/s 761 mmHg 49%
    16:00 +24°C° 0 mm 7 m/s 761 mmHg 51%
    17:00 +22°C° 0 mm 6 m/s 761 mmHg 60%
    18:00 +19°C° 0 mm 6 m/s 762 mmHg 69%
    19:00 +16°C° 0 mm 5 m/s 762 mmHg 78%
    20:00 +15°C° 0 mm 5 m/s 763 mmHg 79%
    21:00 +14°C° 0 mm 5 m/s 763 mmHg 80%
    22:00 +13°C° 0 mm 5 m/s 763 mmHg 81%
    23:00 +13°C° 0 mm 5 m/s 763 mmHg 79%

    21 Agosto, Terça-feira

    Tempo Temperatura Precipitação Vento Pressão Humidade
    00:00 +13°C° 0 mm 5 m/s 763 mmHg 77%
    01:00 +13°C° 0 mm 5 m/s 763 mmHg 74%
    02:00 +13°C° 0 mm 5 m/s 762 mmHg 77%
    03:00 +13°C° 0 mm 5 m/s 762 mmHg 80%
    04:00 +13°C° 0 mm 5 m/s 762 mmHg 83%
    05:00 +13°C° 0 mm 5 m/s 762 mmHg 85%
    06:00 +13°C° 0 mm 5 m/s 762 mmHg 88%
    07:00 +14°C° 0 mm 5 m/s 763 mmHg 90%
    08:00 +17°C° 0 mm 6 m/s 763 mmHg 78%
    09:00 +20°C° 0 mm 6 m/s 763 mmHg 65%
    10:00 +23°C° 0 mm 6 m/s 763 mmHg 53%
    11:00 +24°C° 0 mm 6 m/s 763 mmHg 51%
    12:00 +26°C° 0 mm 6 m/s 762 mmHg 49%
    13:00 +26°C° 0 mm 6 m/s 761 mmHg 47%
    14:00 +26°C° 0 mm 6 m/s 761 mmHg 50%
    15:00 +26°C° 0 mm 6 m/s 760 mmHg 53%
    16:00 +25°C° 0 mm 5 m/s 760 mmHg 56%
    17:00 +22°C° 0 mm 5 m/s 761 mmHg 65%
    18:00 +20°C° 0 mm 5 m/s 761 mmHg 75%
    19:00 +18°C° 0 mm 4 m/s 762 mmHg 84%
    20:00 +18°C° 0 mm 4 m/s 762 mmHg 87%
    21:00 +17°C° 0 mm 4 m/s 762 mmHg 90%
    22:00 +15°C° 0 mm 4 m/s 763 mmHg 92%
    23:00 +15°C° 0 mm 4 m/s 762 mmHg 93%

    22 Agosto, Quarta-feira

    Tempo Temperatura Precipitação Vento Pressão Humidade
    00:00 +15°C° 0 mm 4 m/s 762 mmHg 94%
    01:00 +16°C° 0 mm 3 m/s 761 mmHg 95%
    02:00 +16°C° 0 mm 3 m/s 761 mmHg 95%
    03:00 +16°C° 0 mm 3 m/s 761 mmHg 96%
    04:00 +16°C° 0 mm 3 m/s 761 mmHg 96%
    05:00 +17°C° 0 mm 3 m/s 761 mmHg 97%
    06:00 +17°C° 0 mm 3 m/s 762 mmHg 97%
    07:00 +17°C° 0 mm 3 m/s 762 mmHg 97%
    08:00 +20°C° 0 mm 3 m/s 762 mmHg 87%
    09:00 +22°C° 0 mm 4 m/s 763 mmHg 77%
    10:00 +25°C° 0 mm 4 m/s 763 mmHg 67%
    11:00 +27°C° 0 mm 4 m/s 762 mmHg 62%
    12:00 +28°C° 0 mm 4 m/s 761 mmHg 56%
    13:00 +29°C° 0 mm 4 m/s 760 mmHg 50%
    14:00 +28°C° 0,1 mm 4 m/s 760 mmHg 56%
    15:00 +27°C° 0,1 mm 4 m/s 760 mmHg 62%
    16:00 +26°C° 0,1 mm 4 m/s 759 mmHg 67%
    17:00 +25°C° 0 mm 4 m/s 760 mmHg 75%
    18:00 +22°C° 0 mm 3 m/s 760 mmHg 83%
    19:00 +21°C° 0 mm 3 m/s 761 mmHg 90%
    20:00 +21°C° 0,1 mm 3 m/s 761 mmHg 92%
    21:00 +20°C° 0,1 mm 3 m/s 762 mmHg 94%
    22:00 +20°C° 0,1 mm 3 m/s 762 mmHg 96%
    23:00 +20°C° 0,1 mm 3 m/s 762 mmHg 96%
    Mostrar mais